Location: Wien
(48.2082°N, 16.3738°E)
Time: 15:23:23
(UTC+02:00)

Vanguard 1 Rocket - All Passes

Search period start: 07 September 2024 00:00
Search period end: 17 September 2024 00:00
Orbit: 649 x 4220 km, 34.3° (Epoch: 06 September)

Date Brightness Start Highest point End Pass type
(mag) Time Alt. Az. Time Alt. Az. Time Alt. Az.
07 Sep - 03:06:03 10° SE 03:13:58 14° ESE 03:23:07 10° E visible
07 Sep - 05:21:52 10° SSW 05:39:24 39° SE 06:01:37 10° E visible
07 Sep - 07:46:28 10° WSW 08:08:54 56° S 08:32:11 10° ESE daylight
07 Sep - 10:15:22 10° W 10:39:39 52° SSW 10:59:06 10° SE daylight
07 Sep - 12:48:11 10° W 13:07:26 30° SW 13:21:26 10° S daylight
08 Sep - 04:11:30 10° S 04:25:50 28° SE 04:44:44 10° E visible
08 Sep - 06:33:32 10° SW 06:53:35 51° SSE 07:17:31 10° E daylight
08 Sep - 09:00:34 10° WSW 09:24:21 56° S 09:46:15 10° ESE daylight
08 Sep - 11:31:19 10° W 11:53:53 41° SSW 12:10:56 10° SSE daylight
08 Sep - 14:08:48 10° W 14:19:18 15° WSW 14:27:59 10° SSW daylight
09 Sep - 03:03:19 10° SSE 03:13:13 17° SE 03:25:38 10° E visible
09 Sep - 05:21:38 10° SSW 05:38:57 43° SSE 06:01:57 10° E visible
09 Sep - 07:46:41 10° WSW 08:08:44 57° S 08:32:27 10° ESE daylight
09 Sep - 10:15:37 10° W 10:39:23 49° SSW 10:59:12 10° SE daylight
09 Sep - 12:48:52 10° W 13:06:49 26° SW 13:20:39 10° S daylight
10 Sep - 04:10:53 10° SSW 04:25:16 32° SE 04:45:17 10° E visible
10 Sep - 06:33:42 10° SW 06:53:21 53° SSE 07:17:45 10° E daylight
10 Sep - 09:00:52 10° W 09:24:09 55° SSW 09:46:25 10° ESE daylight
10 Sep - 11:31:42 10° W 11:53:24 37° SW 12:10:36 10° SSE daylight
10 Sep - 14:12:36 10° WSW 14:18:32 12° WSW 14:23:55 10° SW daylight
11 Sep - 03:01:46 10° S 03:12:34 21° SE 03:27:04 10° E visible
11 Sep - 05:21:39 10° SW 05:38:37 46° SSE 06:02:08 10° E visible
11 Sep - 07:47:00 10° WSW 08:08:34 57° S 08:32:38 10° ESE daylight
11 Sep - 10:15:57 10° W 10:39:02 46° SSW 10:59:07 10° SE daylight
11 Sep - 12:49:56 10° W 13:06:07 22° SW 13:19:20 10° S daylight
12 Sep - 01:58:33 10° SE 02:00:43 10° ESE 02:02:59 10° ESE visible
12 Sep - 04:10:36 10° SSW 04:24:49 36° SE 04:45:37 10° E visible
12 Sep - 06:34:00 10° WSW 06:53:10 55° S 07:17:53 10° ESE daylight
12 Sep - 09:01:14 10° W 09:23:55 53° SSW 09:46:26 10° SE daylight
12 Sep - 11:32:15 10° W 11:52:49 33° SW 12:09:58 10° SSE daylight
13 Sep - 03:00:52 10° S 03:12:01 25° SE 03:27:56 10° E visible
13 Sep - 05:21:50 10° SW 05:38:22 49° SSE 06:02:15 10° E visible
13 Sep - 07:47:24 10° WSW 08:08:25 56° S 08:32:41 10° ESE daylight
13 Sep - 10:16:22 10° W 10:38:36 42° SSW 10:58:47 10° SSE daylight
13 Sep - 12:51:37 10° W 13:05:20 18° SW 13:17:13 10° SSW daylight
14 Sep - 01:53:53 10° SSE 02:00:05 14° ESE 02:07:42 10° E visible
14 Sep - 04:10:35 10° SSW 04:24:29 40° SSE 04:45:47 10° E visible
14 Sep - 06:34:24 10° WSW 06:53:03 56° S 07:17:55 10° ESE daylight
14 Sep - 09:01:40 10° W 09:23:38 50° SSW 09:46:17 10° SE daylight
14 Sep - 11:33:02 10° W 11:52:09 28° SW 12:08:53 10° S daylight
15 Sep - 03:00:25 10° S 03:11:34 28° SE 03:28:27 10° E visible
15 Sep - 05:22:11 10° SW 05:38:14 51° SSE 06:02:15 10° E visible
15 Sep - 07:47:53 10° WSW 08:08:15 55° S 08:32:36 10° ESE daylight
15 Sep - 10:16:55 10° W 10:38:06 38° SW 10:58:09 10° SSE daylight
15 Sep - 12:54:33 10° W 13:04:31 14° WSW 13:13:41 10° SSW daylight
16 Sep - 01:52:05 10° SSE 01:59:35 17° SE 02:09:37 10° E visible
16 Sep - 04:10:46 10° SW 04:24:16 43° SSE 04:45:50 10° E visible
16 Sep - 06:34:53 10° WSW 06:52:58 56° S 07:17:51 10° ESE daylight
16 Sep - 09:02:11 10° W 09:23:18 46° SSW 09:45:53 10° SE daylight
16 Sep - 11:34:12 10° W 11:51:27 24° SW 12:07:16 10° S daylight
